"Pseudo-MPEC" for C14ZZZ2

Created 2019 Oct 10 18:07:13 UT using Find_Orb

Click here for an explanation of pseudo-MPECs

 
 Astrometry: 
     C14ZZZ2  C2019 10 08.39453 03 41 59.90 +15 34 22.8    ~A8AM 21.4 GVNEOCPG96
     C14ZZZ2  C2019 10 08.39922 03 42 00.37 +15 34 19.5    ~A8AM 20.8 GVNEOCPG96
     C14ZZZ2  C2019 10 08.40392 03 42 00.78 +15 34 15.3    ~A8AM 21.0 GVNEOCPG96
     C14ZZZ2  C2019 10 08.40861 03 42 01.22 +15 34 12.0    ~A8AM 21.9 GVNEOCPG96
     C14ZZZ2  C2019 10 08.46064 03 42 06.29 +15 33 30.1    ~A8Bb       VNEOCPI52
     C14ZZZ2  C2019 10 08.46179 03 42 06.41 +15 33 29.3    ~A8Bb 22.3 GVNEOCPI52
     C14ZZZ2  C2019 10 08.46290 03 42 06.56 +15 33 28.2    ~A8Bb       VNEOCPI52
     C14ZZZ2  C2019 10 08.46402 03 42 06.64 +15 33 27.6    ~A8Bb       VNEOCPI52
     C14ZZZ2 KC2019 10 09htp!M=4;Lm2yy+dXAstrometryTt:]CSJ^b7*aRL\HNceb$lV0B%H21
     C14ZZZ2 KC2019 10 09/MjA'[ebhiF++lXW(Z+kHoFXuVU?'redacted;y:.quclickMY==H21
     C14ZZZ2  C2019 10 09.42939 03 43 52.01 +15 20 16.0    ~A9BM 21.7 GVNEOCPG96
     C14ZZZ2  C2019 10 09.43084 03 43 52.14 +15 20 14.9    ~A9BM 21.5 GVNEOCPG96
     C14ZZZ2  C2019 10 09.45173 03 43 54.17 +15 19 56.6    ~A9BM       VNEOCPG96
     C14ZZZ2  C2019 10 09.45318 03 43 54.33 +15 19 55.5    ~A9BM 21.3 GVNEOCPG96
     C14ZZZ2  C2019 10 09Zweo0vQj\CD*8jhpw?wPY+G.3[*;('ZQ7V)\8LvKl`Kb]E9g$E5gF51
     C14ZZZ2  C2019 10 092pGeOwy'i/0K6+xTVE;(-RMG@+F/LXYsNx#Kw^:`H?b^%here;l[F51
     C14ZZZ2  C2019 10 09`a=m:Dn4*:w0LV^.a+y@kG:.+?IwT/_LSJKATfor?r?lN#F\A=GfF51
     C14ZZZ2  C2019 10 09d;tIZCh,9:cFe4AsS98ygoFexplanation#gLx^M?h9K7Lkw?+`fF51
     C14ZZZ2  C2019 10 10.29575 03 45 29.44 +15 07 30.8    ~AA7b 21.3 GVNEOCPG96
     C14ZZZ2  C2019 10 10.29720 03 45 29.62 +15 07 29.3    ~AA7b 21.8 GVNEOCPG96
     C14ZZZ2  C2019 10 10.29949 03 45 29.80 +15 07 27.2    ~AA7b 21.6 GVNEOCPG96
     C14ZZZ2  C2019 10 10.30179 03 45 30.06 +15 07 25.6    ~AA7b 21.5 GVNEOCPG96

Station data:
(F51) Pan-STARRS 1, Haleakala  (N20.707235 W156.255910)  US/Hawaii.
   Observers N. Primak, A. Schultz, S. Watters, J. Thiel, T. Goggia. Measurer
   PS1 Science Consortium. 1.8-m Ritchey-Chrétien + CCD.
(G96) Mt. Lemmon Survey  (N32.442754 W110.788720)  US/Arizona.  Observers T.
   A. Pruyne, B. M. Africano, E. J. Christensen, G. A. Farneth, D. C. Fuls,
   A. R. Gibbs, A. D. Grauer, H. Groeller, J. A. Johnson, R. A. Kowalski, S.
   M. Larson, G. J. Leonard, D. Rankin, R. L. Seaman, F. C. Shelly. 1.5-m
   reflector + 10K CCD.
(H21) Astronomical Research Observatory, Westfield  (N39.483057 W87.968270)
   US/Illinois. 0.76-m f/3.0 astrograph + CCD.
(I52) Steward Observatory, Mt. Lemmon Station  (N32.442547 W110.788920)
   US/Arizona.  Observers T. A. Pruyne, B. M. Africano, E. J. Christensen, G.
   A. Farneth, D. C. Fuls, A. R. Gibbs, A. D. Grauer, H. Groeller, J. A.
   Johnson, R. A. Kowalski, S. M. Larson, G. J. Leonard, D. Rankin, R. L.
   Seaman, F. C. Shelly. 1.0-m reflector + CCD.

Orbital elements:  C14ZZZ2
   Perihelion 2020 Jan 10.149564 +/- 0.35 TT =  3:35:22 (JD 2458858.649564)
Epoch 2019 Oct 10.0 TT = JDT 2458766.5   Earth MOID: 0.0512   Ve: 0.0416
M 288.95316742 +/- 0.9              Ma: 0.0351                AutoNEOCP
n   0.77099477 +/- 0.0082           Peri.  313.71421 +/- 0.39
a   1.17788192 +/- 0.00833          Node   192.12596 +/- 0.18
e   0.4337622 +/- 0.00559           Incl.    4.72146 +/- 0.08
P   1.28/466.92d           H 22.7   G  0.15   U  9.5  
q 0.66696124 +/- 0.00344    Q 1.68880261 +/- 0.0181
From 22 observations 2019 Oct. 8-10 (45.8 hr); mean residual 0".26
Residuals in arcseconds: 
191008 G96  .13+  .09+    191009 H21  .19-  .33+    191009 F51  .23+  .10+    
191008 G96  .35+  .45+    191009 H21  .24-  .24+    191009 F51  .12+  .05-    
191008 G96  .31-  .07-    191009 G96  .38+  .08+    191010 G96  .08-  .02-    
191008 G96  .52-  .31+    191009 G96  .19+  .23+    191010 G96  .35+  .24-    
191008 I52  .24-  .32-    191009 G96  .36-  .11-    191010 G96  .48-  .32-    
191008 I52  .13-  .20-    191009 G96  .13-  .04+    191010 G96  .16-  .11+    
191008 I52  .48+  .41-    191009 F51  .21+  .18-    
191008 I52  .05+  .11-    191009 F51  .30+  .02+    

Ephemerides (geocentric):
Date (UTC) HH   RA              Dec         delta   r     elong  mag " sig PA
---- -- -- --  -------------   -----------  ------ ------ -----  --- ---- ---
2019 10 10 18  03 46 19.377   +15 00 40.55  .28099 1.2244 138.9 21.8 .406  92
2019 10 10 19  03 46 24.096   +15 00 01.18  .28061 1.2241 138.9 21.8 .419  91
2019 10 10 20  03 46 28.820   +14 59 21.68  .28023 1.2238 139.0 21.8 .433  90
2019 10 10 21  03 46 33.549   +14 58 42.05  .27984 1.2235 139.0 21.8 .448  89
2019 10 10 22  03 46 38.282   +14 58 02.29  .27946 1.2233 139.0 21.8 .462  88
2019 10 10 23  03 46 43.020   +14 57 22.41  .27908 1.2230 139.0 21.8 .477  87
2019 10 11 00  03 46 47.763   +14 56 42.39  .27870 1.2227 139.0 21.8 .492  86
2019 10 11 01  03 46 52.511   +14 56 02.25  .27831 1.2224 139.1 21.8 .508  85
2019 10 11 02  03 46 57.264   +14 55 21.97  .27793 1.2222 139.1 21.8 .524  84
2019 10 11 03  03 47 02.022   +14 54 41.57  .27755 1.2219 139.1 21.8 .540  83
2019 10 11 04  03 47 06.785   +14 54 01.03  .27716 1.2216 139.1 21.7 .557  82
2019 10 11 05  03 47 11.552   +14 53 20.36  .27678 1.2213 139.2 21.7 .574  81
2019 10 11 06  03 47 16.325   +14 52 39.56  .27640 1.2211 139.2 21.7 .591  80
2019 10 11 07  03 47 21.103   +14 51 58.63  .27602 1.2208 139.2 21.7 .609  80
2019 10 11 08  03 47 25.886   +14 51 17.56  .27564 1.2205 139.2 21.7 .627  79
2019 10 11 09  03 47 30.673   +14 50 36.36  .27525 1.2202 139.3 21.7 .645  78
2019 10 11 10  03 47 35.466   +14 49 55.03  .27487 1.2200 139.3 21.7 .664  77
2019 10 11 11  03 47 40.264   +14 49 13.57  .27449 1.2197 139.3 21.7 .683  77
2019 10 11 12  03 47 45.067   +14 48 31.97  .27411 1.2194 139.3 21.7 .703  76
2019 10 11 13  03 47 49.876   +14 47 50.23  .27373 1.2191 139.3 21.7 .722  75
2019 10 11 14  03 47 54.689   +14 47 08.36  .27335 1.2189 139.4 21.7 .743  75
2019 10 11 15  03 47 59.508   +14 46 26.35  .27297 1.2186 139.4 21.7 .763  74
2019 10 11 16  03 48 04.332   +14 45 44.21  .27259 1.2183 139.4 21.7 .784  74
2019 10 11 17  03 48 09.161   +14 45 01.93  .27221 1.2180 139.4 21.7 .805  73
2019 10 11 18  03 48 13.995   +14 44 19.51  .27183 1.2177 139.5 21.7 .826  72
2019 10 11 19  03 48 18.835   +14 43 36.96  .27145 1.2175 139.5 21.7 .848  72
2019 10 11 20  03 48 23.680   +14 42 54.27  .27107 1.2172 139.5 21.7 .870  71
2019 10 11 21  03 48 28.531   +14 42 11.43  .27069 1.2169 139.5 21.7 .893  71
2019 10 11 22  03 48 33.387   +14 41 28.46  .27031 1.2166 139.5 21.7 .916  70
2019 10 11 23  03 48 38.248   +14 40 45.35  .26993 1.2164 139.6 21.7 .939  70
2019 10 12 00  03 48 43.115   +14 40 02.10  .26955 1.2161 139.6 21.7 .962  69
2019 10 12 01  03 48 47.987   +14 39 18.71  .26917 1.2158 139.6 21.7 .986  69
2019 10 12 02  03 48 52.865   +14 38 35.18  .26879 1.2155 139.6 21.7 1.01  68
2019 10 12 03  03 48 57.748   +14 37 51.51  .26841 1.2153 139.7 21.7 1.04  68
2019 10 12 04  03 49 02.637   +14 37 07.69  .26803 1.2150 139.7 21.7 1.06  67
2019 10 12 05  03 49 07.531   +14 36 23.74  .26765 1.2147 139.7 21.7 1.09  67
2019 10 12 06  03 49 12.431   +14 35 39.64  .26727 1.2144 139.7 21.7 1.11  67
2019 10 12 07  03 49 17.336   +14 34 55.39  .26689 1.2141 139.8 21.6 1.14  66
2019 10 12 08  03 49 22.247   +14 34 11.01  .26651 1.2139 139.8 21.6 1.16  66
2019 10 12 09  03 49 27.164   +14 33 26.47  .26614 1.2136 139.8 21.6 1.19  65
2019 10 12 10  03 49 32.087   +14 32 41.80  .26576 1.2133 139.8 21.6 1.22  65
2019 10 12 11  03 49 37.015   +14 31 56.97  .26538 1.2130 139.8 21.6 1.24  64
2019 10 12 12  03 49 41.949   +14 31 12.01  .26500 1.2128 139.9 21.6 1.27  64
2019 10 12 13  03 49 46.889   +14 30 26.89  .26462 1.2125 139.9 21.6 1.30  64
2019 10 12 14  03 49 51.835   +14 29 41.63  .26425 1.2122 139.9 21.6 1.33  63
2019 10 12 15  03 49 56.786   +14 28 56.22  .26387 1.2119 139.9 21.6 1.36  63
2019 10 12 16  03 50 01.743   +14 28 10.67  .26349 1.2117 140.0 21.6 1.39  63
2019 10 12 17  03 50 06.707   +14 27 24.96  .26311 1.2114 140.0 21.6 1.41  62